Home > Weather > Rodez > Past weeks

Flag for France Past Weather in Rodez, Midi-Pyrénées, France — Yesterday and Last 2 Weeks

Now
54 °F

Broken clouds.


Feels Like: 50 °F
Forecast: 50 / 55 °F
Wind: 13 mph from West

Location: Rodez Airport

Current Time: May 29, 2016 at 3:36:27 PM

Latest Report: May 29, 2016 at 3:00 PM


Visibility: N/A

Pressure: 29.92 "Hg (27.70 "Hg at 642m altitude)

Humidity: 94%

Dew Point: 52 °F

Location of RodezLocation

Past Weather in Rodez — Graph

°F

Rodez Temperature Yesterday

Maximum temperature yesterday: 75 °F (at 3:30 PM)
Minimum temperature yesterday: 52 °F (at 8:30 PM)
Average temperature yesterday: 63 °F

High & Low Weather Summary for the Past Weeks

 TemperatureHumidityPressure
High77 °F (May 21, 2:00 PM)100% (May 15, 1:30 AM)30.24 "Hg (May 15, 1:30 AM)
Low36 °F (May 16, 5:00 AM)38% (May 21, 8:00 PM)29.77 "Hg (May 28, 7:30 PM)
Average55 °F73%30.02 "Hg
* Reported May 14 2:00 PM — May 29 2:30 PM, Rodez, Weather by CustomWeather, © 2016

Note: Actual official high and low records may vary slightly from our data, if they occured in-between our weather recording intervals... More about our weather records

Advertising

Rodez Weather History for the Previous 24 Hours

Scroll right to see more
 ConditionsComfort  
Time TempWeatherWind HumidityBarometerVisibility
2:30 PM
Sun, May 29
55 °FPartly sunny.14 mph94%29.89 "HgN/A
2:00 PM57 °FMostly cloudy.16 mph88%29.89 "HgN/A
1:30 PM54 °FDrizzle. Low clouds.13 mph100%29.89 "HgN/A
1:00 PM55 °FLight rain. Mostly cloudy.13 mph94%29.89 "HgN/A
12:30 PM55 °FLight rain. Mostly cloudy.14 mph94%29.89 "HgN/A
12:00 PM55 °FLight rain. Mostly cloudy.15 mph94%29.86 "HgN/A
11:30 AM55 °FLight rain. Mostly cloudy.16 mph94%29.86 "HgN/A
11:00 AM55 °FRain. Low clouds.14 mph94%29.86 "Hg5 mi
10:30 AM55 °FLight rain. Partly sunny.7 mph94%29.86 "Hg6 mi
10:00 AM55 °FLight rain. Partly sunny.9 mph94%29.86 "HgN/A
9:30 AM54 °FRain. Fog.9 mph100%29.83 "Hg3 mi
9:00 AM54 °FLight rain. Mostly cloudy.8 mph100%29.83 "HgN/A
8:30 AM54 °FLight rain. Mostly cloudy.12 mph100%29.83 "Hg5 mi
8:00 AM54 °FLight rain. Partly sunny.6 mph100%29.83 "Hg4 mi
7:30 AM54 °FRain. Cloudy.8 mph94%29.83 "Hg4 mi
7:00 AM52 °FLight rain. Mostly cloudy.3 mph100%29.83 "Hg4 mi
6:30 AM52 °FLight rain. Overcast.3 mph100%29.80 "Hg6 mi
6:00 AM52 °FLight rain. Passing clouds.3 mph100%29.80 "HgN/A
5:30 AM52 °FLight rain. Overcast.2 mph100%29.80 "HgN/A
5:00 AM52 °FLight rain. Overcast.3 mph100%29.80 "HgN/A
4:30 AM52 °FLight rain. Overcast.3 mph100%29.80 "HgN/A
4:00 AM54 °FLight rain. Partly cloudy.6 mph94%29.83 "HgN/A
3:30 AM54 °FLight rain. Overcast.5 mph94%29.83 "HgN/A
3:00 AM54 °FRain. Fog.No wind94%29.86 "Hg2 mi
2:30 AM54 °FRain. Partly cloudy.5 mph94%29.89 "Hg6 mi
2:00 AM55 °FHeavy rain. Fog.14 mph94%29.89 "Hg2 mi
1:30 AM57 °FRain. Passing clouds.3 mph94%29.86 "Hg6 mi
1:00 AM55 °FOvercast.3 mph100%29.86 "HgN/A
12:30 AM55 °FCool.5 mph100%29.86 "HgN/A
12:00 AM57 °FCool.3 mph94%29.86 "HgN/A
11:30 PM
Sat, May 28
55 °FLight rain. Overcast.3 mph100%29.86 "HgN/A
11:00 PM57 °FPartly cloudy.3 mph94%29.86 "HgN/A
10:30 PM55 °FMostly cloudy.7 mph100%29.86 "HgN/A
10:00 PM55 °FBroken clouds.5 mph100%29.86 "HgN/A
9:30 PM57 °FPartly sunny.2 mph94%29.83 "HgN/A
9:00 PM55 °FThundershowers. Low clouds.9 mph94%29.83 "HgN/A
8:30 PM52 °FStrong thunderstorms. Fog.23 mph94%29.83 "Hg2 mi
8:00 PM64 °FThunderstorms. Partly sunny.8 mph78%29.77 "HgN/A
7:30 PM66 °FThunderstorms. Partly sunny.10 mph78%29.77 "HgN/A
7:00 PM68 °FPartly sunny.9 mph73%29.80 "HgN/A
6:30 PM68 °FScattered clouds.8 mph73%29.80 "HgN/A
6:00 PM70 °FPassing clouds.10 mph69%29.80 "HgN/A
5:30 PM72 °FScattered clouds.12 mph69%29.80 "HgN/A
5:00 PM73 °FThunderstorms. Mostly cloudy.10 mph65%29.80 "HgN/A
4:30 PM73 °FBroken clouds.7 mph65%29.83 "HgN/A
4:00 PM73 °FPartly sunny.7 mph69%29.83 "HgN/A
3:30 PM75 °FPassing clouds.5 mph61%29.83 "HgN/A
3:00 PM73 °FPassing clouds.5 mph61%29.83 "HgN/A
Weather by CustomWeather, © 2016

See weather overviewHow to use our weather pages